Methuen, Massachusetts, United States (01844)
Lat: 42.73N, Lon: 71.19W
Wx Zone: MAZ006
Local Info
Past Weather Observations for Monday, November 24, 2014

NOTE: This archive is for the closest National Weather Service station to Methuen. Information may differ from the station used for current weather conditions.

Click here for Long-term Archive

Time Weather Temperature Dewpoint Humidity Pressure Winds Precip Visibility
23:54
Clear
61°F / 16°C 54°F / 12°C 77% 29.68 in
(1005 mb)
SW 10.4 mph
(SW 17 kph)
- 10SM
22:54
Clear
61°F / 16°C 54°F / 12°C 77% 29.68 in
(1005 mb)
SW 12.7 mph
(SW 20 kph)
- 10SM
21:54
Clear
61°F / 16°C 55°F / 13°C 83% 29.68 in
(1005 mb)
SW 12.7 mph
(SW 20 kph)
- 10SM
20:54
Clear
63°F / 17°C 55°F / 13°C 77% 29.65 in
(1004 mb)
SW 11.5 mph
(SW 19 kph)
- 10SM
19:54
Clear
63°F / 17°C 55°F / 13°C 77% 29.62 in
(1003 mb)
SW 13.8 mph
(SW 22 kph)
- 10SM
18:54
Mostly Cloudy
63°F / 17°C 55°F / 13°C 77% 29.62 in
(1003 mb)
SW 17.3 mph
(SW 28 kph)
- 10SM
18:23
Overcast
64°F / 18°C 57°F / 14°C 78% 29.62 in
(1003 mb)
SW 19.6 mph
(SW 32 kph)
- 10SM
17:54
Overcast
64°F / 18°C 57°F / 14°C 78% 29.59 in
(1002 mb)
SW 17.3 mph
(SW 28 kph)
- 10SM
16:54
Overcast
64°F / 18°C 59°F / 15°C 83% 29.56 in
(1001 mb)
S 10.4 mph
(S 17 kph)
- 10SM
16:47
Overcast
64°F / 18°C 59°F / 15°C 83% 29.56 in
(1001 mb)
SSE 11.5 mph
(SSE 19 kph)
- 10SM
16:32
Overcast
64°F / 18°C 59°F / 15°C 83% 29.56 in
(1001 mb)
S 13.8 mph
(S 22 kph)
- 10SM
15:54
Partly Cloudy
64°F / 18°C 61°F / 16°C 88% 29.56 in
(1001 mb)
SSE 11.5 mph
(SSE 19 kph)
- 10SM
15:36
Mostly Cloudy
66°F / 19°C 61°F / 16°C 83% 29.59 in
(1002 mb)
SSE 15 mph
(SSE 24 kph)
- 10SM
14:54
Overcast
66°F / 19°C 61°F / 16°C 83% 29.59 in
(1002 mb)
S 11.5 mph
(S 19 kph)
0.00 in
(0.00 mm)
10SM
14:01
Overcast
64°F / 18°C 63°F / 17°C 94% 29.62 in
(1003 mb)
SSE 10.4 mph
(SSE 17 kph)
0.00 in
(0.00 mm)
10SM
13:54
Overcast
Light Rain
64°F / 18°C 63°F / 17°C 94% 29.62 in
(1003 mb)
SSE 10.4 mph
(SSE 17 kph)
0.00 in
(0.00 mm)
8SM
12:54
Overcast
64°F / 18°C 63°F / 17°C 94% 29.62 in
(1003 mb)
SSE 10.4 mph
(SSE 17 kph)
0.00 in
(0.00 mm)
10SM
12:28
Overcast
Light Rain
63°F / 17°C 61°F / 16°C 94% 29.65 in
(1004 mb)
SSE 10.4 mph
(SSE 17 kph)
0.00 in
(0.00 mm)
4SM
12:10
Overcast
63°F / 17°C 61°F / 16°C 94% 29.65 in
(1004 mb)
S 12.7 mph
(S 20 kph)
0.00 in
(0.00 mm)
9SM
11:54
Overcast
Light Rain
63°F / 17°C 61°F / 16°C 94% 29.65 in
(1004 mb)
SSE 9.2 mph
(SSE 15 kph)
0.01 in
(0.25 mm)
2 1/2SM
11:16
Overcast
Light Rain
63°F / 17°C 61°F / 16°C 94% 29.68 in
(1005 mb)
SSE 10.4 mph
(SSE 17 kph)
0.00 in
(0.00 mm)
2 1/2SM
10:54
Overcast
63°F / 17°C 59°F / 15°C 88% 29.68 in
(1005 mb)
S 13.8 mph
(S 22 kph)
0.01 in
(0.25 mm)
10SM
10:24
Overcast
Light Rain
61°F / 16°C 59°F / 15°C 94% 29.71 in
(1006 mb)
S 10.4 mph
(S 17 kph)
0.01 in
(0.25 mm)
4SM
09:54
Overcast
Light Rain
61°F / 16°C 57°F / 14°C 88% 29.74 in
(1007 mb)
S 9.2 mph
(S 15 kph)
0.05 in
(1.27 mm)
3SM
09:46
Overcast
Light Rain
59°F / 15°C 57°F / 14°C 94% 29.74 in
(1007 mb)
S 8.1 mph
(S 13 kph)
0.05 in
(1.27 mm)
3SM
09:26
Overcast
Rain
59°F / 15°C 57°F / 14°C 94% 29.74 in
(1007 mb)
SSE 11.5 mph
(SSE 19 kph)
0.03 in
(0.76 mm)
2SM
08:54
Overcast
Light Rain
57°F / 14°C 55°F / 13°C 94% 29.77 in
(1008 mb)
SSE 13.8 mph
(SSE 22 kph)
0.02 in
(0.51 mm)
3SM
07:54
Overcast
Light Rain
55°F / 13°C 54°F / 12°C 94% 29.8 in
(1009 mb)
SSE 13.8 mph
(SSE 22 kph)
0.07 in
(1.78 mm)
10SM
07:38
Overcast
Light Rain
55°F / 13°C 54°F / 12°C 94% 29.8 in
(1009 mb)
SE 9.2 mph
(SE 15 kph)
0.06 in
(1.52 mm)
6SM
07:22
Overcast
Light Rain
54°F / 12°C 52°F / 11°C 94% 29.83 in
(1010 mb)
SE 10.4 mph
(SE 17 kph)
0.05 in
(1.27 mm)
5SM
06:54
Overcast
Rain
54°F / 12°C 52°F / 11°C 94% 29.89 in
(1012 mb)
SE 12.7 mph
(SE 20 kph)
0.08 in
(2.03 mm)
5SM
05:54
Overcast
Light Rain
52°F / 11°C 50°F / 10°C 94% 29.92 in
(1013 mb)
SE 10.4 mph
(SE 17 kph)
0.06 in
(1.52 mm)
6SM
05:26
Overcast
Light Rain
50°F / 10°C 48°F / 9°C 94% 29.95 in
(1014 mb)
SE 8.1 mph
(SE 13 kph)
0.05 in
(1.27 mm)
7SM
05:22
Overcast
Light Rain
50°F / 10°C 48°F / 9°C 94% 29.95 in
(1014 mb)
SE 10.4 mph
(SE 17 kph)
0.05 in
(1.27 mm)
6SM
04:54
Overcast
Rain
48°F / 9°C 46°F / 8°C 94% 29.98 in
(1015 mb)
ESE 8.1 mph
(ESE 13 kph)
0.02 in
(0.51 mm)
5SM
04:39
Overcast
Light Rain
46°F / 8°C 45°F / 7°C 93% 29.98 in
(1015 mb)
ESE 6.9 mph
(ESE 11 kph)
0.00 in
(0.00 mm)
9SM
03:54
Overcast
45°F / 7°C 39°F / 4°C 81% 30.01 in
(1016 mb)
Variable 3.5 mph
(Variable 6 kph)
- 10SM
03:33
Overcast
45°F / 7°C 37°F / 3°C 76% 30.04 in
(1017 mb)
ESE 4.6 mph
(ESE 7 kph)
- 10SM
03:25
Overcast
45°F / 7°C 37°F / 3°C 76% 30.04 in
(1017 mb)
Calm - 10SM
02:54
Mostly Cloudy
45°F / 7°C 36°F / 2°C 71% 30.06 in
(1018 mb)
Calm - 10SM
01:54
Clear
45°F / 7°C 34°F / 1°C 66% 30.09 in
(1019 mb)
Calm - 10SM
00:54
Clear
45°F / 7°C 34°F / 1°C 66% 30.09 in
(1019 mb)
SSE 4.6 mph
(SSE 7 kph)
- 10SM
Time Weather Temperature Dewpoint Humidity Pressure Winds Precip Visibility


Weather for websites

WeatherForYou.com, LLC is not responsible for any damages or problems caused by this service. Current weather conditions are obtained from the closest station including government and personal stations which may have varying degrees of accuracy. Weather forecasts are derived from the NOAA NDFD. Like all things, this site belongs to Jesus Christ... He just trusts me to maintain it. If you have any questions or comments email webmaster@weatherforyou.com

Copyright © 2014, WeatherForYou.com LLC. All rights reserved.